Location: Beaver Meadows
(40.3729°N, 105.6140°W)
Time: 04:25:36
(UTC-06:00)

Iridium 67 - Visible Passes

Search period start: 02 October 2014 00:00
Search period end: 12 October 2014 00:00
Orbit: 776 x 779 km, 86.4° (Epoch: 01 October)

Date Brightness Start Highest point End Pass type
(mag) Time Alt. Az. Time Alt. Az. Time Alt. Az.
02 Oct 6.1 06:13:30 10° N 06:18:40 64° E 06:23:49 10° SSE visible
02 Oct 6.3 19:09:43 10° SSW 19:14:49 59° W 19:19:58 10° N visible
03 Oct 7.3 05:40:18 10° NNE 05:45:02 34° E 05:49:44 10° SSE visible
03 Oct 8.9 20:20:35 10° W 20:22:36 12° WNW 20:24:38 10° NW visible
04 Oct 8.3 05:07:34 10° NNE 05:11:15 19° ENE 05:14:55 10° ESE visible
04 Oct 8.2 19:44:42 10° SW 19:48:43 22° WNW 19:52:46 10° NNW visible
05 Oct 9.0 04:37:03 10° ENE 04:37:20 10° ENE 04:37:37 10° ENE visible
05 Oct 5.5 06:13:33 10° N 06:18:47 88° W 06:23:58 10° S visible
05 Oct 7.1 19:10:07 10° SSW 19:14:59 41° W 19:19:53 10° NNW visible
06 Oct 6.5 05:40:09 10° N 05:45:12 50° E 05:50:14 10° SSE visible
07 Oct 7.6 05:07:06 10° NNE 05:11:31 27° E 05:15:53 10° SE visible
07 Oct 8.6 19:45:56 10° WSW 19:49:01 16° WNW 19:52:06 10° NW visible
08 Oct 8.5 04:34:43 10° NE 04:37:40 15° ENE 04:40:37 10° ESE visible
08 Oct 5.5 06:13:43 10° N 06:18:50 60° W 06:23:55 10° SSW visible
08 Oct 7.9 19:10:45 10° SW 19:15:11 28° W 19:19:39 10° NNW visible
09 Oct 5.7 05:40:07 10° N 05:45:20 73° E 05:50:31 10° S visible
10 Oct 6.9 05:06:51 10° NNE 05:11:43 39° E 05:16:33 10° SSE visible
10 Oct 9.0 19:48:21 10° W 19:49:21 11° WNW 19:50:21 10° WNW visible
11 Oct 7.9 04:33:59 10° NNE 04:37:58 22° ENE 04:41:55 10° SE visible
11 Oct 5.9 06:13:59 10° NNW 06:18:50 41° W 06:23:40 10° SSW visible
11 Oct 8.4 19:11:41 10° WSW 19:15:26 20° WNW 19:19:12 10° NNW visible
